Terminal Aerodrome Forecast
Issued by NWS

Home | Current Version | Previous Version | Text Only | Print | Product List | Glossary On
Versions: 1 2 3 4 5 6 7 8 9 10 11 12 13 14 15 16 17 18 19 20 21 22 23 24 25
924
FTUS43 KDLH 031802 AAA
TAFHIB
TAF AMD
KHIB 031802Z 0318/0418 17006KT P6SM BKN015 OVC030
     FM040000 17005KT P6SM OVC015
     FM040800 16006KT P6SM VCSH OVC008
     FM041000 15006KT 3SM -SN OVC003=

USA.gov is the U.S. government's official web portal to all federal, state and local government web resources and services.